| time (UTC) | temp F | wind direction | speed knots | gust knots | rain 1hr in | rain 24hr in | rain mn in | humidity % | barometer mb |
| 20260502181527 | 72 | 6 | 7.0 | 12.2 | 0.00 | 1.29 | 0.00 | 65 | 1018.5 |
| 20260502163019 | 69 | 15 | 8.7 | 13.9 | 0.00 | 2.13 | 0.00 | 74 | 1018.7 |
| 20260502161510 | 68 | 16 | 8.7 | 13.9 | 0.00 | 2.13 | 0.00 | 73 | 1018.4 |
| 20260502151605 | 65 | 20 | 7.0 | 13.0 | 0.00 | 2.15 | 0.00 | 79 | 1018.5 |
| 20260502123029 | 56 | 349 | 4.3 | 8.7 | 0.00 | 2.31 | 0.00 | 92 | 1016.9 |
| 20260502121524 | 55 | 25 | 4.3 | 8.7 | 0.00 | 2.31 | 0.00 | 91 | 1016.6 |
| 20260502114528 | 55 | 24 | 4.3 | 8.7 | 0.00 | 2.31 | 0.00 | 90 | 1016.1 |
| 20260502113022 | 56 | 21 | 5.2 | 11.3 | 0.00 | 2.31 | 0.00 | 89 | 1015.9 |
| 20260502111514 | 55 | 11 | 7.0 | 11.3 | 0.00 | 2.31 | 0.00 | 88 | 1015.7 |
| 20260502110015 | 55 | 15 | 5.2 | 9.6 | 0.00 | 2.31 | 0.00 | 89 | 1015.6 |
| 20260502104511 | 55 | 14 | 4.3 | 7.8 | 0.00 | 2.31 | 0.00 | 89 | 1015.5 |
| 20260502103008 | 56 | 2 | 5.2 | 8.7 | 0.00 | 2.31 | 0.00 | 89 | 1015.1 |
| 20260502101506 | 56 | 16 | 4.3 | 7.0 | 0.00 | 2.31 | 0.00 | 90 | 1015.0 |
| 20260502070055 | 57 | 4 | 5.2 | 12.2 | 0.00 | 2.31 | 0.00 | 97 | 1013.7 |
| 20260502064613 | 56 | 22 | 7.0 | 12.2 | 0.00 | 2.31 | 0.00 | 97 | 1013.7 |
| 20260502063057 | 56 | 31 | 4.3 | 11.3 | 0.00 | 2.31 | 0.00 | 97 | 1013.6 |
| 20260502061545 | 56 | 23 | 3.5 | 9.6 | 0.00 | 2.31 | 0.00 | 97 | 1013.5 |
| 20260502060047 | 56 | 17 | 5.2 | 13.0 | 0.00 | 2.31 | 0.00 | 97 | 1013.5 |
| 20260502054541 | 56 | 34 | 3.5 | 10.4 | 0.00 | 2.31 | 0.00 | 97 | 1013.6 |
| 20260502053040 | 56 | 359 | 8.7 | 15.6 | 0.00 | 2.31 | 0.00 | 97 | 1013.9 |
| 20260502051536 | 56 | 13 | 6.1 | 12.2 | 0.00 | 2.31 | 0.00 | 97 | 1013.8 |
| 20260502050034 | 57 | 18 | 7.0 | 11.3 | 0.00 | 2.31 | 0.00 | 97 | 1013.8 |
| 20260502044531 | 56 | 1 | 9.6 | 16.5 | 0.00 | 2.31 | 2.31 | 97 | 1013.7 |
| 20260502043029 | 56 | 27 | 10.4 | 14.8 | 0.00 | 2.31 | 2.31 | 97 | 1013.7 |
| 20260502041533 | 57 | 13 | 6.1 | 13.9 | 0.00 | 2.31 | 2.31 | 97 | 1013.7 |
| 20260502040023 | 57 | 7 | 7.8 | 13.0 | 0.01 | 2.31 | 2.31 | 97 | 1013.5 |
| 20260502034519 | 58 | 8 | 7.8 | 11.3 | 0.02 | 2.31 | 2.31 | 97 | 1012.9 |
| 20260502033026 | 58 | 14 | 6.1 | 14.8 | 0.03 | 2.31 | 2.31 | 97 | 1012.6 |
| 20260502031514 | 58 | 33 | 7.8 | 13.9 | 0.04 | 2.31 | 2.31 | 97 | 1012.2 |
| 20260502030012 | 58 | 15 | 7.8 | 13.9 | 0.02 | 2.29 | 2.29 | 97 | 1011.7 |
| 20260502024514 | 59 | 20 | 7.8 | 10.4 | 0.02 | 2.34 | 2.29 | 97 | 1011.8 |
| 20260502023009 | 59 | 20 | 7.0 | 13.0 | 0.01 | 2.33 | 2.27 | 97 | 1011.9 |
| 20260502021508 | 59 | 8 | 6.1 | 11.3 | 0.01 | 2.31 | 2.27 | 97 | 1011.8 |
| 20260502020006 | 59 | 337 | 7.8 | 11.3 | 0.02 | 2.31 | 2.27 | 97 | 1011.7 |
| 20260502014503 | 59 | 8 | 7.0 | 11.3 | 0.05 | 2.37 | 2.27 | 97 | 1011.4 |
| 20260502013002 | 60 | 2 | 7.0 | 12.2 | 0.12 | 2.37 | 2.27 | 97 | 1010.9 |
| 20260502011501 | 60 | 19 | 7.0 | 9.6 | 0.11 | 2.36 | 2.25 | 97 | 1010.3 |
| 20260502010111 | 59 | 96 | 1.7 | 7.0 | 0.11 | 2.35 | 2.25 | 97 | 1009.2 |
| 20260502004558 | 60 | 13 | 8.7 | 15.6 | 0.08 | 2.41 | 2.22 | 97 | 1009.3 |
| 20260502003057 | 60 | 11 | 8.7 | 15.6 | 0.02 | 2.34 | 2.15 | 97 | 1009.4 |
| 20260502001556 | 60 | 15 | 9.6 | 15.6 | 0.04 | 2.34 | 2.15 | 97 | 1008.9 |
| 20260502000055 | 60 | 44 | 8.7 | 14.8 | 0.03 | 2.33 | 2.14 | 97 | 1008.8 |
| 20260501234553 | 61 | 12 | 9.6 | 14.8 | 0.03 | 2.36 | 2.14 | 97 | 1008.8 |
| 20260501233101 | 61 | 9 | 7.8 | 12.2 | 0.04 | 2.35 | 2.13 | 97 | 1008.0 |
| 20260501231549 | 61 | 6 | 7.8 | 13.0 | 0.04 | 2.33 | 2.11 | 97 | 1007.9 |
| 20260501230048 | 61 | 25 | 4.3 | 12.2 | 0.05 | 2.33 | 2.11 | 97 | 1007.6 |
| 20260501224544 | 62 | 29 | 4.3 | 7.8 | 0.05 | 2.33 | 2.11 | 97 | 1008.4 |
| 20260501223043 | 62 | 30 | 4.3 | 9.6 | 0.05 | 2.31 | 2.09 | 97 | 1008.5 |
| 20260501221542 | 62 | 103 | 7.0 | 13.9 | 0.09 | 2.29 | 2.06 | 97 | 1009.0 |
| 20260501220040 | 62 | 12 | 6.1 | 11.3 | 0.18 | 2.27 | 2.06 | 97 | 1008.5 |
| 20260501214538 | 63 | 13 | 6.1 | 9.6 | 0.22 | 2.27 | 2.06 | 97 | 1008.4 |
| 20260501213037 | 63 | 49 | 1.7 | 8.7 | 0.24 | 2.25 | 2.04 | 97 | 1007.6 |
| 20260501211538 | 63 | 16 | 3.5 | 10.4 | 0.46 | 2.19 | 1.97 | 97 | 1008.7 |
| 20260501210037 | 63 | 32 | 3.5 | 10.4 | 0.44 | 2.10 | 1.88 | 97 | 1008.1 |
| 20260501204545 | 63 | 33 | 4.3 | 9.6 | 0.55 | 2.04 | 1.83 | 97 | 1007.9 |
| 20260501203033 | 63 | 115 | 1.7 | 7.8 | 0.73 | 2.02 | 1.80 | 97 | 1007.2 |
| 20260501201533 | 63 | 322 | 4.3 | 13.9 | 0.49 | 1.73 | 1.51 | 97 | 1008.0 |
| 20260501200034 | 64 | 18 | 8.7 | 13.0 | 0.42 | 1.66 | 1.44 | 97 | 1006.8 |
| 20260501194531 | 63 | 83 | 1.7 | 6.1 | 0.24 | 1.48 | 1.26 | 97 | 1007.2 |
| 20260501193030 | 63 | 28 | 3.5 | 12.2 | 0.05 | 1.29 | 1.07 | 97 | 1007.0 |
| 20260501191538 | 63 | 35 | 2.6 | 11.3 | 0.00 | 1.24 | 1.02 | 97 | 1007.5 |
| 20260501190029 | 64 | 28 | 1.7 | 7.0 | 0.00 | 1.24 | 1.02 | 97 | 1007.6 |
| 20260501184541 | 64 | 22 | 4.3 | 7.0 | 0.00 | 1.24 | 1.02 | 97 | 1008.3 |
| 20260501183034 | 64 | 25 | 3.5 | 11.3 | 0.00 | 1.24 | 1.02 | 97 | 1007.5 |